Location: Celina Elementary School
(33.3262°N, 96.7767°W)
Time: 07:22:29
(UTC+00:00)

SWAS - Pass Details

Date: 26 November 2021
Orbit: 578 x 591 km, 69.9° (Epoch: 20 January)

Event Time Altitude Azimuth Distance (km) Brightness Sun altitude
Rises 12:06:52 0° 203° (SSW) 2,790 7.9 -12.9°
Reaches altitude 10° 12:09:05 10° 205° (SSW) 1,896 7.0 -12.5°
Maximum altitude 12:13:20 80° 292° (WNW) 600 4.4 -11.6°
Drops below altitude 10° 12:17:38 10° 19° (NNE) 1,917 7.1 -10.8°
Sets 12:19:52 0° 21° (NNE) 2,823 8.0 -10.3°
